IRIDIUM 33 DEB, 39781

Orbit data source: Space-Track

IRIDIUM 33 DEB, 39781 is space debris in LEO originally from a launch on Sun, 14 Sep 1997 UTC launched from the Tyuratam Missile And Space Complex (TTMTR). The debris from Iridium 33, an American commercial communications satellite, has been tracked extensively since its accidental collision with the defunct Russian satellite Cosmos 2251 in 2009. This event, occurring at high speed in low Earth orbit (LEO), generated thousands of pieces of space debris, significantly increasing the risk of further collisions. The Iridium 33 debris cloud has impacted space traffic management and orbital debris mitigation strategies, making it a subject of ongoing study in space situational awareness.

Loading next visibility...
Identifier
39781, 1997-051AAN
Orbit
LEO
Country
Flag of USUS
Related business
Manufacturer
Unknown
Mission
Spacecraft
Bus & Motor
Unknown
Mass
Unknown
Launch date (UTC)
1997-09-14 (29 years ago)
Launch vehicle
Unknown
Launch site
Tyuratam Missile And Space Complex (TTMTR)
Object type
Payload
Rocket body
Debris
Shape & HBR
Unknown shape, 0.056 m
Radar Cross Section
Small (<0.1 m²)

Expand to show TLE details & history
Last TLE update: 3 days ago

TLE from 3 days ago
0 IRIDIUM 33 DEB
1 39781U 97051AAN 26263.97012015  .00002670  00000-0  95179-3 0  9993
2 39781  86.3778 141.2545 0170292  87.5261 337.3740 14.26063291121231
Epoch: 2026-09-20T23:16Z
TLE epoch observation values (Epoch: 2026-09-20T23:16:58.380Z)
Latitude
63.9886°
Longitude
159.56793°
Altitude
703.406 km
Speed
7.569 km/s
True Right ascension
09h 54m 40s
True Declination
63° 51' 06"
Sunlit
Object was in daylight at epoch
Visualization orbit readout
Latitude
Unknown
Longitude
Unknown
Altitude
Unknown
Speed
Unknown
Apparent Right ascension
Unknown
Apparent Declination
Unknown
Sunlit
N/A
Visualization observer readout
Local Sidereal Time
23:59:17
Azimuth
Unknown
Elevation
Unknown
Doppler factor
Unknown
Orbital elements
Apogee altitude
924.165 km
Perigee altitude
679.625 km
Semi-major axis
7,180.032 km
Eccentricity
0.01703
Inclination
86.3778°
RAAN
141.2545°
Arg. of periapsis
87.5261°
True anomaly
336.60826°
Mean anomaly
337.374°
Eccentric anomaly
336.99265°
Mean motion
3.56741 °/min
Orbital period
100.91 mins
BSTAR
0.00095179
Loading maneuver chart data...
Computing Atmospheric mass density...

Documentation

Showing up to 5 results
|